When you browse on this site, cookies collect data to enhance your experience and personalize the content and advertising you see.
Visit our Privacy Policy to learn more. By continuing to use the site, you agree to this use of cookies and data.
  • In Hungary
  • List of Countries
  • For 7 days
  • Water Temperature
  • Weather Map
  • News
  • Weather Widgets
  • user-avatar
    Login

    Hourly Weather Gorodeckie Vyselki

    Today, 21 October, Monday

    Time Temperature Precipitation Wind Pressure Humidity
    00:00 +12°C° 0 mm 3 mps 754 mmHg 91%
    01:00 +12°C° 0 mm 3 mps 754 mmHg 89%
    02:00 +12°C° 0 mm 4 mps 754 mmHg 88%
    03:00 +12°C° 0 mm 4 mps 754 mmHg 88%
    04:00 +12°C° 0 mm 4 mps 754 mmHg 89%
    05:00 +11°C° 0 mm 4 mps 754 mmHg 90%
    06:00 +11°C° 0 mm 4 mps 753 mmHg 91%
    07:00 +11°C° 0 mm 4 mps 753 mmHg 88%
    08:00 +10°C° 0 mm 5 mps 753 mmHg 85%
    09:00 +12°C° 0 mm 5 mps 753 mmHg 81%
    10:00 +13°C° 0 mm 6 mps 753 mmHg 75%
    11:00 +14°C° 0 mm 6 mps 753 mmHg 69%
    12:00 +15°C° 0 mm 7 mps 753 mmHg 63%
    13:00 +16°C° 0 mm 6 mps 752 mmHg 64%
    14:00 +16°C° 0 mm 6 mps 752 mmHg 64%
    15:00 +16°C° 0 mm 6 mps 752 mmHg 64%
    16:00 +15°C° 0 mm 6 mps 752 mmHg 68%
    17:00 +14°C° 0 mm 6 mps 752 mmHg 72%
    18:00 +13°C° 0 mm 5 mps 751 mmHg 75%
    19:00 +13°C° 0 mm 5 mps 752 mmHg 78%
    20:00 +13°C° 0 mm 5 mps 752 mmHg 81%
    21:00 +12°C° 0 mm 4 mps 752 mmHg 84%
    22:00 +12°C° 0.1 mm 3 mps 752 mmHg 86%
    23:00 +12°C° 0.1 mm 3 mps 752 mmHg 89%

    Tomorrow, 22 October, Tuesday

    Time Temperature Precipitation Wind Pressure Humidity
    00:00 +13°C° 0.1 mm 2 mps 752 mmHg 92%
    01:00 +13°C° 0.3 mm 2 mps 752 mmHg 93%
    02:00 +12°C° 0.3 mm 2 mps 753 mmHg 94%
    03:00 +12°C° 0.3 mm 2 mps 753 mmHg 95%
    04:00 +12°C° 0 mm 2 mps 753 mmHg 95%
    05:00 +11°C° 0 mm 1 mps 753 mmHg 95%
    06:00 +10°C° 0 mm 1 mps 753 mmHg 95%
    07:00 +10°C° 0 mm 1 mps 754 mmHg 93%
    08:00 +11°C° 0 mm 1 mps 754 mmHg 91%
    09:00 +11°C° 0 mm 1 mps 754 mmHg 90%
    10:00 +12°C° 0 mm 1 mps 754 mmHg 83%
    11:00 +13°C° 0 mm 2 mps 755 mmHg 77%
    12:00 +13°C° 0 mm 2 mps 755 mmHg 71%
    13:00 +14°C° 0 mm 2 mps 755 mmHg 69%
    14:00 +14°C° 0 mm 2 mps 755 mmHg 66%
    15:00 +14°C° 0 mm 2 mps 754 mmHg 63%
    16:00 +13°C° 0 mm 2 mps 754 mmHg 68%
    17:00 +12°C° 0 mm 2 mps 754 mmHg 72%
    18:00 +11°C° 0 mm 1 mps 754 mmHg 77%
    19:00 +10°C° 0 mm 2 mps 754 mmHg 78%
    20:00 +10°C° 0 mm 2 mps 754 mmHg 79%
    21:00 +9°C° 0 mm 2 mps 754 mmHg 80%
    22:00 +10°C° 0.2 mm 2 mps 754 mmHg 83%
    23:00 +10°C° 0.2 mm 3 mps 753 mmHg 86%

    Day after tomorrow, 23 October, Wednesday

    Time Temperature Precipitation Wind Pressure Humidity
    00:00 +10°C° 0.2 mm 3 mps 753 mmHg 89%
    01:00 +10°C° 0 mm 4 mps 753 mmHg 90%
    02:00 +11°C° 0 mm 4 mps 753 mmHg 90%
    03:00 +10°C° 0 mm 5 mps 752 mmHg 91%
    04:00 +10°C° 0 mm 5 mps 752 mmHg 92%
    05:00 +10°C° 0 mm 5 mps 752 mmHg 93%
    06:00 +10°C° 0 mm 5 mps 752 mmHg 94%
    07:00 +10°C° 0 mm 5 mps 751 mmHg 93%
    08:00 +10°C° 0 mm 5 mps 751 mmHg 92%
    09:00 +12°C° 0 mm 5 mps 751 mmHg 91%
    10:00 +13°C° 0 mm 5 mps 751 mmHg 86%
    11:00 +14°C° 0 mm 5 mps 751 mmHg 81%
    12:00 +15°C° 0 mm 5 mps 751 mmHg 75%
    13:00 +16°C° 0 mm 5 mps 751 mmHg 74%
    14:00 +17°C° 0 mm 4 mps 751 mmHg 72%
    15:00 +18°C° 0 mm 4 mps 751 mmHg 71%
    16:00 +17°C° 0 mm 4 mps 751 mmHg 76%
    17:00 +14°C° 0 mm 3 mps 750 mmHg 82%
    18:00 +13°C° 0 mm 3 mps 750 mmHg 87%
    19:00 +13°C° 0 mm 3 mps 750 mmHg 89%
    20:00 +13°C° 0 mm 2 mps 751 mmHg 91%
    21:00 +13°C° 0 mm 2 mps 751 mmHg 92%
    22:00 +13°C° 0 mm 2 mps 751 mmHg 93%
    23:00 +12°C° 0 mm 2 mps 751 mmHg 93%

    24 October, Thursday

    Time Temperature Precipitation Wind Pressure Humidity
    00:00 +12°C° 0 mm 1 mps 751 mmHg 94%
    01:00 +11°C° 0 mm 1 mps 751 mmHg 94%
    02:00 +11°C° 0 mm 1 mps 751 mmHg 95%
    03:00 +11°C° 0 mm 1 mps 751 mmHg 95%
    04:00 +11°C° 0.1 mm 1 mps 751 mmHg 95%
    05:00 +11°C° 0.1 mm 1 mps 751 mmHg 95%
    06:00 +10°C° 0.1 mm 2 mps 751 mmHg 96%
    07:00 +10°C° 0.3 mm 2 mps 752 mmHg 95%
    08:00 +10°C° 0.3 mm 2 mps 752 mmHg 93%
    09:00 +10°C° 0.3 mm 2 mps 752 mmHg 92%
    10:00 +10°C° 0.5 mm 3 mps 752 mmHg 91%
    11:00 +10°C° 0.5 mm 3 mps 752 mmHg 89%
    12:00 +10°C° 0.5 mm 3 mps 752 mmHg 87%
    13:00 +12°C° 0 mm 2 mps 753 mmHg 83%
    14:00 +12°C° 0 mm 2 mps 753 mmHg 80%
    15:00 +12°C° 0 mm 2 mps 753 mmHg 76%
    16:00 +12°C° 0 mm 1 mps 753 mmHg 78%
    17:00 +11°C° 0 mm 1 mps 753 mmHg 79%
    18:00 +11°C° 0 mm 1 mps 753 mmHg 81%
    19:00 +10°C° 0 mm 1 mps 753 mmHg 82%
    20:00 +10°C° 0 mm 1 mps 754 mmHg 83%
    21:00 +9°C° 0 mm 1 mps 754 mmHg 83%
    22:00 +9°C° 0 mm 1 mps 754 mmHg 84%
    23:00 +9°C° 0 mm 1 mps 754 mmHg 84%

    25 October, Friday

    Time Temperature Precipitation Wind Pressure Humidity
    00:00 +8°C° 0 mm 1 mps 754 mmHg 84%
    01:00 +7°C° 0 mm 2 mps 754 mmHg 85%
    02:00 +7°C° 0 mm 2 mps 754 mmHg 86%
    03:00 +7°C° 0 mm 2 mps 755 mmHg 86%
    04:00 +7°C° 0 mm 2 mps 755 mmHg 87%
    05:00 +6°C° 0 mm 2 mps 755 mmHg 88%
    06:00 +6°C° 0 mm 2 mps 755 mmHg 89%
    07:00 +7°C° 0 mm 2 mps 755 mmHg 87%
    08:00 +7°C° 0 mm 2 mps 755 mmHg 86%
    09:00 +8°C° 0 mm 2 mps 755 mmHg 84%
    10:00 +9°C° 0 mm 2 mps 755 mmHg 80%
    11:00 +10°C° 0 mm 2 mps 755 mmHg 76%
    12:00 +11°C° 0 mm 3 mps 755 mmHg 71%
    13:00 +12°C° 0 mm 3 mps 755 mmHg 70%
    14:00 +12°C° 0 mm 3 mps 755 mmHg 69%
    15:00 +12°C° 0 mm 3 mps 755 mmHg 68%
    16:00 +11°C° 0 mm 3 mps 755 mmHg 72%
    17:00 +10°C° 0 mm 3 mps 754 mmHg 77%
    18:00 +9°C° 0 mm 2 mps 754 mmHg 82%
    19:00 +9°C° 0 mm 2 mps 754 mmHg 82%
    20:00 +8°C° 0 mm 3 mps 754 mmHg 83%
    21:00 +8°C° 0 mm 3 mps 754 mmHg 84%
    22:00 +8°C° 0 mm 3 mps 754 mmHg 85%
    23:00 +8°C° 0 mm 3 mps 754 mmHg 85%

    26 October, Saturday

    Time Temperature Precipitation Wind Pressure Humidity
    00:00 +7°C° 0 mm 4 mps 754 mmHg 86%
    01:00 +7°C° 0 mm 4 mps 753 mmHg 85%
    02:00 +7°C° 0 mm 5 mps 753 mmHg 85%
    03:00 +7°C° 0 mm 5 mps 753 mmHg 85%
    04:00 +7°C° 0 mm 5 mps 752 mmHg 85%
    05:00 +7°C° 0 mm 5 mps 752 mmHg 86%
    06:00 +7°C° 0 mm 5 mps 752 mmHg 86%
    07:00 +7°C° 0 mm 6 mps 752 mmHg 86%
    08:00 +8°C° 0 mm 6 mps 752 mmHg 85%
    09:00 +8°C° 0 mm 6 mps 751 mmHg 84%
    10:00 +9°C° 0 mm 6 mps 751 mmHg 83%
    11:00 +10°C° 0 mm 6 mps 751 mmHg 81%
    12:00 +11°C° 0 mm 6 mps 751 mmHg 80%
    13:00 +11°C° 0 mm 6 mps 751 mmHg 81%
    14:00 +10°C° 0 mm 6 mps 751 mmHg 83%
    15:00 +10°C° 0 mm 5 mps 751 mmHg 84%
    16:00 +10°C° 0 mm 5 mps 751 mmHg 84%
    17:00 +10°C° 0 mm 5 mps 751 mmHg 83%
    18:00 +10°C° 0 mm 4 mps 751 mmHg 82%
    19:00 +10°C° 0 mm 4 mps 751 mmHg 84%
    20:00 +8°C° 0 mm 4 mps 752 mmHg 86%
    21:00 +8°C° 0 mm 4 mps 752 mmHg 87%
    22:00 +9°C° 0 mm 3 mps 752 mmHg 89%
    23:00 +8°C° 0 mm 3 mps 752 mmHg 90%

    27 October, Sunday

    Time Temperature Precipitation Wind Pressure Humidity
    00:00 +8°C° 0 mm 3 mps 752 mmHg 92%
    01:00 +8°C° 0 mm 3 mps 752 mmHg 92%
    02:00 +7°C° 0 mm 3 mps 752 mmHg 93%
    03:00 +7°C° 0 mm 3 mps 752 mmHg 93%
    04:00 +7°C° 0 mm 3 mps 752 mmHg 94%
    05:00 +7°C° 0 mm 3 mps 752 mmHg 94%
    06:00 +5°C° 0 mm 3 mps 751 mmHg 94%
    07:00 +7°C° 0 mm 3 mps 751 mmHg 92%
    08:00 +6°C° 0 mm 4 mps 751 mmHg 89%
    09:00 +7°C° 0 mm 4 mps 751 mmHg 87%
    10:00 +8°C° 0 mm 5 mps 750 mmHg 82%
    11:00 +9°C° 0 mm 5 mps 750 mmHg 77%
    12:00 +10°C° 0 mm 5 mps 750 mmHg 72%
    13:00 +10°C° 0 mm 6 mps 749 mmHg 70%
    14:00 +11°C° 0 mm 6 mps 748 mmHg 68%
    15:00 +11°C° 0 mm 6 mps 748 mmHg 65%
    16:00 +11°C° 0 mm 6 mps 747 mmHg 68%
    17:00 +10°C° 0 mm 6 mps 747 mmHg 71%
    18:00 +10°C° 0 mm 6 mps 746 mmHg 74%
    19:00 +10°C° 0 mm 6 mps 746 mmHg 78%
    20:00 +10°C° 0 mm 6 mps 746 mmHg 82%
    21:00 +10°C° 0 mm 6 mps 745 mmHg 86%
    22:00 +10°C° 0 mm 6 mps 745 mmHg 87%
    23:00 +9°C° 0 mm 6 mps 744 mmHg 89%
    Show more